Location: Peterborough
(44.3091°N, 78.3197°W)
Time: 03:40:48
(UTC-04:00)

A-11 Canister half - Pass Details

Date: 22 March 2023
Orbit: 1513 x 1686 km, 47.2° (Epoch: 08 June)

Event Time Altitude Azimuth Distance (km) Brightness Sun altitude
Exits shadow 04:47:27 26° 288° (WNW) 2,898 10.0 -25.8°
Maximum altitude 04:54:05 78° 207° (SSW) 1,718 9.0 -24.8°
Drops below altitude 10° 05:04:09 10° 123° (ESE) 3,906 11.5 -23.2°
Sets 05:07:15 0° 122° (ESE) 4,875 12.1 -22.7°
